TimeAKDT,TemperatureF,Dew PointF,Humidity,Sea Level PressureIn,VisibilityMPH,Wind Direction,Wind SpeedMPH,Gust SpeedMPH,PrecipitationIn,Events,Conditions,WindDirDegrees,DateUTC
12:53 AM,48.9,46.0,90,29.73,10.0,Variable,4.6,-,0.00,Rain,Light Rain,0,2013-09-05 08:53:00
1:27 AM,48.2,46.4,93,29.73,10.0,SW,4.6,-,0.00,,Overcast,230,2013-09-05 09:27:00
1:53 AM,48.0,46.0,93,29.76,10.0,SW,4.6,-,0.00,,Overcast,230,2013-09-05 09:53:00
2:53 AM,46.9,45.0,93,29.78,10.0,Calm,Calm,-,0.01,Rain,Light Rain,0,2013-09-05 10:53:00
3:53 AM,46.0,45.0,96,29.80,7.0,Calm,Calm,-,0.01,Rain,Light Rain,0,2013-09-05 11:53:00
4:53 AM,46.0,43.0,89,29.82,10.0,Calm,Calm,-,0.00,,Overcast,0,2013-09-05 12:53:00
5:53 AM,45.0,43.0,93,29.82,10.0,Calm,Calm,-,N/A,,Overcast,0,2013-09-05 13:53:00
6:53 AM,43.0,41.0,93,29.83,10.0,Calm,Calm,-,N/A,,Mostly Cloudy,0,2013-09-05 14:53:00
7:53 AM,43.0,41.0,93,29.83,10.0,East,3.5,-,N/A,,Clear,90,2013-09-05 15:53:00
8:53 AM,44.1,41.0,89,29.84,10.0,East,8.1,-,N/A,,Clear,100,2013-09-05 16:53:00
9:53 AM,45.0,42.1,90,29.86,10.0,East,8.1,-,N/A,,Partly Cloudy,80,2013-09-05 17:53:00
10:53 AM,48.0,42.1,80,29.85,10.0,East,8.1,-,N/A,,Partly Cloudy,80,2013-09-05 18:53:00
11:53 AM,51.1,44.1,77,29.86,10.0,ENE,9.2,-,N/A,,Clear,70,2013-09-05 19:53:00
12:53 PM,54.0,45.0,72,29.86,10.0,East,11.5,-,N/A,,Clear,80,2013-09-05 20:53:00
1:53 PM,57.0,45.0,64,29.87,10.0,ENE,9.2,-,N/A,,Partly Cloudy,60,2013-09-05 21:53:00
2:53 PM,57.9,44.1,60,29.87,10.0,East,10.4,-,N/A,,Partly Cloudy,90,2013-09-05 22:53:00
3:53 PM,60.1,43.0,53,29.88,10.0,Calm,Calm,-,N/A,,Mostly Cloudy,0,2013-09-05 23:53:00
4:53 PM,57.9,46.9,67,29.88,10.0,NNW,4.6,-,N/A,,Overcast,330,2013-09-06 00:53:00
5:53 PM,57.0,50.0,77,29.89,10.0,Calm,Calm,-,N/A,,Mostly Cloudy,0,2013-09-06 01:53:00
6:53 PM,55.9,48.9,77,29.90,10.0,Calm,Calm,-,N/A,,Overcast,0,2013-09-06 02:53:00
7:53 PM,54.0,48.0,80,29.92,10.0,NW,3.5,-,N/A,,Mostly Cloudy,320,2013-09-06 03:53:00
8:53 PM,52.0,46.9,83,29.94,10.0,Calm,Calm,-,N/A,,Mostly Cloudy,0,2013-09-06 04:53:00
9:53 PM,48.0,45.0,89,29.95,10.0,SW,3.5,-,N/A,,Clear,230,2013-09-06 05:53:00
10:53 PM,45.0,43.0,93,29.97,10.0,Calm,Calm,-,N/A,,Clear,0,2013-09-06 06:53:00
11:53 PM,43.0,42.1,97,29.98,8.0,Calm,Calm,-,N/A,,Clear,0,2013-09-06 07:53:00